Location: G�kdere
(37.0328°N, 30.9000°E)
Time: 05:35:10
(UTC+00:00)

Cosmos 2218 Rocket - Pass Details

Date: 03 March 2021
Orbit: 955 x 1007 km, 82.9° (Epoch: 20 April)

Event Time Altitude Azimuth Distance (km) Brightness Sun altitude
Rises 17:00:04 0° 163° (SSE) 3,714 6.8 -14.3°
Reaches altitude 10° 17:02:44 10° 157° (SSE) 2,771 6.1 -14.8°
Maximum altitude 17:08:37 41° 89° (E) 1,427 4.4 -16.0°
Drops below altitude 10° 17:14:32 10° 22° (NNE) 2,787 6.2 -17.1°
Sets 17:17:12 0° 15° (NNE) 3,738 7.0 -17.7°
